[[{"header":{"parameterUnit":"m.s-1","parameterCategory":1,"la1":30.2991,"la2":30.254,"lo1":-89.0895,"lo2":-89.0444,"dy":0.0017,"dx":0.0017,"nx":28,"ny":28,"refTime":"2025-06-08T09:00:00:Z","depth":0,"parameterNumber":2,"parameterNumberName":"U-component_of_WINDS"},"data":[0,0,0,0,0,0,0,0,0,0,0,0,0,0,0,0,0,0,0,0,0,0,0,0,0,0,0,0,0,0,0,0,0,0,0,0,0,0,0,0,0,0,0,0,0,0,0,0,0,0,0,0,0,0,0,0,0,0,5.4229,5.4231,0,5.4402,5.4404,5.4406,5.4357,5.4354,5.435,5.4347,5.4523,5.4531,5.4538,0,0,0,0,0,0,0,0,0,0,0,0,0,5.3855,5.3862,5.4229,5.4231,5.4234,5.4401,5.4404,5.4406,5.4358,5.4353,5.4349,5.4345,5.452,5.453,5.4539,0,0,0,0,0,0,0,0,0,0,0,0,0,5.4021,5.3864,5.4229,5.423,5.4231,5.4401,5.4404,5.4407,5.4359,5.4353,5.4348,5.4343,5.4517,5.4529,5.454,5.472,0,0,5.4577,5.4582,0,0,0,0,0,0,0,0,5.4012,5.4035,5.4227,5.423,5.4232,5.4353,5.4336,5.4512,5.436,5.431,5.4347,5.4341,5.447,5.4486,5.453,5.4728,5.4735,5.4578,5.4585,5.459,5.4594,0,0,0,0,0,0,0,5.4,5.4027,5.4297,5.423,5.4233,5.422,5.4238,5.4369,5.4418,5.4314,5.4311,5.4332,5.4471,5.4518,5.4534,5.4738,5.4578,5.4588,5.4596,5.46,5.5086,5.5092,0,0,0,0,0,0,5.3987,5.4018,5.4292,5.4303,5.4107,5.4231,5.4251,5.4319,5.4416,5.4426,5.4337,5.4329,5.4501,5.452,5.454,5.4752,5.459,5.4602,5.4608,5.5081,5.5088,5.5094,0,0,0,0,0,0,5.3979,5.4012,5.4285,5.416,5.4193,5.4243,5.432,5.4325,5.4373,5.4433,5.4441,5.4377,5.4497,5.4523,5.4674,5.4757,5.4607,5.4618,5.5074,5.5083,5.5091,5.518,0,0,0,0,0,0,5.3969,5.401,5.4079,5.4162,5.42,5.4418,5.4325,5.4333,5.4394,5.4386,5.4473,5.4482,5.4495,5.4656,5.4686,5.4771,5.4627,5.5067,5.5078,5.5088,5.517,5.5191,5.5209,0,0,0,0,0,5.3956,5.4099,5.4083,5.4117,5.4288,5.4423,5.4445,5.4457,5.4401,5.447,5.4508,5.4479,5.4744,5.4672,5.4705,5.4795,5.5061,5.5075,5.5087,5.5161,5.5187,5.5208,0,0,0,0,0,0,5.4026,5.411,5.4093,5.4267,5.4338,5.4415,5.4503,5.4484,5.4573,5.4562,5.4573,5.4593,5.4747,5.4787,5.4705,5.4971,5.4894,5.4914,5.4939,5.4964,5.4983,5.4969,5.4637,0,0,0,0,0,5.4061,5.4164,5.4232,5.4379,5.4415,5.4453,5.4512,5.4515,5.4589,5.4619,5.4668,5.474,5.4839,5.4904,5.4999,5.5176,5.5192,5.5254,5.5273,5.5289,5.5305,5.5397,5.5424,5.5136,5.5136,5.5136,0,0,5.4136,5.4195,5.4259,5.4394,5.445,5.4554,5.4479,5.4594,5.4671,5.4636,5.4781,5.482,5.4901,5.5064,5.5139,5.5102,5.5388,5.5305,5.5317,5.5325,5.5413,5.544,5.5465,5.5145,5.5143,5.5142,0,0,5.4325,5.4381,5.4508,5.4564,5.4648,5.4672,5.4702,5.4781,5.4805,5.495,5.4925,5.5017,5.5188,5.5246,5.5297,5.5504,5.548,5.5535,5.5635,5.5725,5.5747,5.5767,5.5838,5.5863,5.5552,5.5552,5.5552,0,5.4407,5.4565,5.4575,5.4691,5.4749,5.4722,5.4849,5.4903,5.5014,5.5054,5.5012,5.5223,5.5276,5.5451,5.5501,5.5545,5.5577,5.5524,5.5744,5.5764,5.5783,5.5849,5.5876,5.5558,5.5557,5.5557,5.5556,0,5.4659,5.4769,5.4861,5.4967,5.5036,5.5157,5.5184,5.5252,5.5249,5.5276,5.5422,5.5485,5.5589,5.5632,5.563,5.5805,5.5779,5.574,5.5663,5.5816,5.5878,5.5905,5.5566,5.5564,5.5562,5.5561,0,0,5.4898,5.5006,5.5039,5.5085,5.5175,5.5259,5.5377,5.5479,5.5536,5.5613,5.571,5.5854,5.5817,5.5876,5.5881,5.596,5.6114,5.591,5.5912,5.5943,5.6306,5.6333,5.6363,5.6099,5.6104,5.6108,5.6298,0,5.5092,5.53,5.5311,5.5499,5.5598,5.5572,5.5674,5.5739,5.5768,5.5855,5.5886,5.5986,5.5932,5.5966,5.6044,5.6079,5.6187,5.6066,5.6187,5.6191,5.6165,5.6396,5.6426,5.6602,5.6323,5.6328,5.6331,0,5.5346,5.5429,5.5627,5.5698,5.574,5.5832,5.5924,5.6009,5.608,5.6095,5.6159,5.6151,5.6269,5.6189,5.6351,5.6268,5.6318,5.6343,5.635,5.636,5.6269,5.6409,5.6659,5.6684,5.637,5.6367,5.6364,0,5.5495,5.5657,5.5795,5.5835,5.5924,5.5988,5.6028,5.6094,5.6154,5.6234,5.6272,5.6366,5.6416,5.6488,5.6504,5.6445,5.6664,5.6587,5.6677,5.6677,5.6723,5.672,5.6982,5.6761,5.6761,5.676,5.676,0,5.5709,5.583,5.5862,5.5947,5.608,5.6091,5.6223,5.6258,5.6317,5.6406,5.6391,5.6475,5.6493,5.658,5.6594,5.6723,5.6747,5.676,5.6762,5.676,5.6758,5.6791,5.6778,5.6767,5.6766,5.6764,5.6763,0,5.5898,5.5925,5.6073,5.6143,5.6163,5.6258,5.6318,5.6398,5.6423,5.6536,5.6563,5.6603,5.6704,5.6728,5.685,5.6858,5.701,5.7002,5.6986,5.6984,5.7072,5.7062,5.7363,5.7401,5.7158,5.716,5.7162,0,5.6031,5.6123,5.6202,5.6261,5.6303,5.6398,5.6457,5.6471,5.6534,5.662,5.6689,5.6788,5.6868,5.7031,5.7069,5.7161,5.7152,5.7251,5.7166,5.716,5.7149,5.7142,5.715,5.7267,5.7269,5.7272,5.7273,0,5.6263,5.6271,5.6358,5.6448,5.652,5.6592,5.6661,5.6709,5.6732,5.6803,5.6905,5.6967,5.7089,5.7187,5.7278,5.7317,5.7298,5.73,5.7325,5.7323,5.7308,5.7313,5.7026,5.7293,5.7291,5.7289,5.7288,5.7287,5.6426,5.6505,5.6572,5.6668,5.6721,5.6784,5.6862,5.6896,5.6982,5.7082,5.7085,5.7196,5.7261,5.7382,5.7426,5.7512,5.7481,5.7519,5.7528,5.7536,5.7542,5.7297,5.7529,5.7528,5.7528,5.7527,5.7527,0,5.6654,5.6695,5.6783,5.6879,5.6953,5.693,5.7004,5.7067,5.7165,5.7228,5.7306,5.7422,5.7516,5.7561,5.7653,5.7713,5.7706,5.7736,5.7731,5.7739,5.7566,5.7533,5.774,5.774,5.774,5.774,5.774,5.774,5.6781,5.6912,5.6927,5.7083,5.7123,5.7231,5.7275,5.7333,5.7383,5.7513,5.759,5.7619,5.7674,5.7769,5.7853,5.7864,5.7897,5.793,5.7937,5.7774,5.7752,5.7731,5.77,5.7938,5.7939,5.8102,5.8104,5.8105]},{"header":{"parameterUnit":"m.s-1","parameterCategory":1,"la1":30.2991,"la2":30.254,"lo1":-89.0895,"lo2":-89.0444,"dy":0.0017,"dx":0.0017,"nx":28,"ny":28,"refTime":"2025-06-08T09:00:00:Z","depth":0,"parameterNumber":3,"parameterNumberName":"V-component_of_WINDS"},"data":[0,0,0,0,0,0,0,0,0,0,0,0,0,0,0,0,0,0,0,0,0,0,0,0,0,0,0,0,0,0,0,0,0,0,0,0,0,0,0,0,0,0,0,0,0,0,0,0,0,0,0,0,0,0,0,0,0,0,3.9631,3.9632,0,3.973,3.9731,3.9732,3.9697,3.9694,3.9692,3.969,3.9789,3.9794,3.9799,0,0,0,0,0,0,0,0,0,0,0,0,0,3.9407,3.9412,3.9631,3.9632,3.9633,3.973,3.9731,3.9732,3.9697,3.9694,3.9692,3.9689,3.9788,3.9794,3.9799,0,0,0,0,0,0,0,0,0,0,0,0,0,3.9505,3.9413,3.9631,3.9627,3.9628,3.9729,3.9731,3.9733,3.9697,3.9694,3.9691,3.9688,3.9786,3.9793,3.98,3.991,0,0,3.9822,3.9825,0,0,0,0,0,0,0,0,3.95,3.9513,3.9627,3.9628,3.9629,3.9697,3.9689,3.9792,3.9698,3.9671,3.969,3.9686,3.9761,3.977,3.9796,3.9915,3.9919,3.9822,3.9826,3.983,3.9831,0,0,0,0,0,0,0,3.9493,3.9509,3.967,3.9628,3.963,3.962,3.963,3.9708,3.9734,3.9673,3.9671,3.9683,3.9761,3.9789,3.9798,3.992,3.9822,3.9828,3.9833,3.9835,4.0131,4.0134,0,0,0,0,0,0,3.9486,3.9504,3.9667,3.9673,3.9555,3.9626,3.9638,3.9679,3.9733,3.9738,3.9686,3.9681,3.9779,3.979,3.9802,3.9932,3.9829,3.9836,3.984,4.0127,4.0132,4.0136,0,0,0,0,0,0,3.9481,3.9501,3.9663,3.9588,3.9607,3.9634,3.968,3.9682,3.971,3.9742,3.9746,3.971,3.9777,3.9792,3.9883,3.9935,3.9839,3.9846,4.0123,4.0129,4.0134,4.0195,0,0,0,0,0,0,3.9475,3.95,3.9543,3.9589,3.9612,3.9744,3.9683,3.9687,3.9723,3.9718,3.9766,3.9771,3.9775,3.9872,3.989,3.9943,3.9851,4.0119,4.0126,4.0132,4.0189,4.0202,4.0214,0,0,0,0,0,3.9467,3.9556,3.9545,3.9565,3.9666,3.9747,3.976,3.9764,3.9727,3.977,3.979,3.9769,3.9927,3.9882,3.9901,3.9958,4.0115,4.0124,4.0132,4.0183,4.02,4.0213,0,0,0,0,0,0,3.9516,3.9563,3.9551,3.9658,3.9699,3.9741,3.9795,3.9781,3.9833,3.9826,3.9828,3.9839,3.9932,3.9954,3.9904,4.0065,4.0015,4.0028,4.0048,4.0064,4.0076,4.0069,3.9857,0,0,0,0,0,3.9539,3.9601,3.9638,3.9729,3.975,3.9769,3.9805,3.9804,3.9846,3.9863,3.989,3.9931,3.9989,4.0028,4.0083,4.0192,4.02,4.0239,4.0252,4.0262,4.0272,4.0329,4.0346,4.0162,4.0162,4.0162,0,0,3.9587,3.9621,3.966,3.974,3.9771,3.9834,3.9784,3.9854,3.99,3.9873,3.9961,3.9982,4.0027,4.0127,4.0172,4.0148,4.0325,4.0272,4.028,4.0285,4.0339,4.0356,4.0371,4.0168,4.0167,4.0166,0,0,3.9708,3.974,3.9818,3.985,3.9899,3.991,3.9929,3.9973,3.9986,4.0074,4.0054,4.0109,4.021,4.0243,4.0272,4.0402,4.0384,4.042,4.0485,4.054,4.0555,4.0567,4.0612,4.0628,4.0431,4.0431,4.0431,0,3.9762,3.9857,3.986,3.993,3.9965,3.9943,4.0021,4.0052,4.0116,4.014,4.0112,4.0237,4.0266,4.0372,4.0403,4.0429,4.0448,4.0415,4.0552,4.0565,4.0577,4.062,4.0637,4.0435,4.0434,4.0434,4.0434,0,3.992,3.9986,4.0043,4.0105,4.0146,4.022,4.0232,4.0273,4.0268,4.0282,4.037,4.0404,4.0465,4.049,4.0487,4.0595,4.0578,4.0552,4.0501,4.0599,4.0638,4.0655,4.044,4.0439,4.0438,4.0437,0,0,4.0075,4.0136,4.0157,4.0183,4.0234,4.0285,4.0356,4.0416,4.045,4.0495,4.0554,4.0638,4.0613,4.0647,4.0646,4.0695,4.0793,4.0662,4.0663,4.0683,4.0911,4.093,4.0949,4.0781,4.0784,4.0787,4.0907,0,4.0198,4.0325,4.0328,4.0444,4.0504,4.0483,4.0545,4.0582,4.0596,4.0648,4.0663,4.0723,4.0686,4.0706,4.0753,4.0771,4.0838,4.0762,4.0834,4.0837,4.0823,4.0971,4.0992,4.1104,4.0923,4.0925,4.0927,0,4.0359,4.0408,4.053,4.0569,4.0595,4.0651,4.0704,4.0755,4.0795,4.0802,4.0839,4.083,4.0901,4.0849,4.0945,4.0894,4.0923,4.0936,4.094,4.0947,4.0888,4.0979,4.114,4.1156,4.0952,4.095,4.0948,0,4.0458,4.0554,4.0639,4.0662,4.0711,4.0751,4.0773,4.081,4.0845,4.0892,4.0914,4.0968,4.0997,4.1039,4.1044,4.1006,4.1141,4.1089,4.1147,4.1147,4.1176,4.1174,4.1342,4.1197,4.1196,4.1196,4.1196,0,4.0595,4.0669,4.0683,4.0735,4.0817,4.0819,4.09,4.0919,4.0952,4.1006,4.0991,4.1041,4.1046,4.1097,4.1102,4.118,4.1194,4.12,4.12,4.1201,4.12,4.122,4.1212,4.1201,4.12,4.1199,4.1198,0,4.0719,4.0731,4.0822,4.086,4.0871,4.093,4.0962,4.1011,4.1023,4.1091,4.1107,4.1126,4.1186,4.1195,4.1265,4.1268,4.1361,4.1354,4.1348,4.1347,4.1403,4.1397,4.1589,4.1613,4.1453,4.1455,4.1456,0,4.0805,4.0862,4.0906,4.0941,4.0965,4.1022,4.1057,4.106,4.1097,4.1146,4.1188,4.1247,4.1293,4.1389,4.1408,4.1461,4.1454,4.1518,4.1462,4.146,4.1453,4.1449,4.1454,4.1528,4.153,4.1531,4.1532,0,4.0955,4.0958,4.101,4.1064,4.1106,4.1148,4.1188,4.1217,4.1225,4.1267,4.1328,4.1364,4.1435,4.1492,4.1544,4.1565,4.155,4.155,4.1566,4.1567,4.156,4.1563,4.1376,4.1545,4.1544,4.1543,4.1542,4.1542,4.1062,4.1111,4.1149,4.1206,4.1236,4.1273,4.132,4.1338,4.1389,4.1447,4.1445,4.1512,4.1548,4.1616,4.1641,4.1691,4.167,4.1694,4.17,4.1705,4.171,4.1553,4.1701,4.17,4.17,4.17,4.17,0,4.121,4.1233,4.1286,4.1342,4.1387,4.1368,4.1411,4.1449,4.1508,4.1543,4.1589,4.1658,4.1712,4.1735,4.1788,4.1824,4.1818,4.1838,4.1835,4.1839,4.1726,4.1706,4.1842,4.1842,4.1842,4.1842,4.1842,4.1842,4.1293,4.1373,4.138,4.1475,4.1497,4.1562,4.1588,4.1621,4.1649,4.1726,4.1772,4.1786,4.1816,4.1871,4.1919,4.1925,4.1944,4.1967,4.1969,4.1862,4.1848,4.1834,4.1815,4.1971,4.1972,4.2077,4.2078,4.2079]}]]